Location: Nairn
(57.5833°N, 3.8667°W)
Time: 02:13:10
(UTC+00:00)

CENTAUR R/B - Pass Details

Date: 07 August 2020
Orbit: 754 x 1434 km, 63.5° (Epoch: 17 September)

Event Time Altitude Azimuth Distance (km) Brightness Sun altitude
Exits shadow 00:27:28 - 231° (SW) 2,764 4.5 -16.1°
Reaches altitude 10° 00:27:41 10° 231° (SW) 2,682 4.4 -16.1°
Maximum altitude 00:34:02 87° 145° (SE) 1,088 2.7 -16.0°
Drops below altitude 10° 00:41:41 10° 56° (NE) 3,194 5.7 -16.0°
Sets 00:44:41 0° 57° (ENE) 4,256 6.4 -15.9°
